TPC5711 ENBR-BIKF

Flight info

Callsign TPC5711
Flight time N/A
Altitude 36000
Route REKLI1D REKLI DCT VALDI/M080F360 DCT ING DCT NASBU NASBU2H
Aircraft A320/M-SDE3FGHIRWY/LB1

Departure

Time N/A
Airport Bergen Airport, Flesland (ENBR)

Arrival

Time 2026-05-03 22:02
Airport Keflavik International Airport (BIKF)
Time Latitude Longitude Altitude Speed Heading
2026-05-03 20:15 61.23944 -0.10997 35863 ft 409 kts 292°
2026-05-03 20:15 61.26349 -0.21731 35864 ft 409 kts 292°
2026-05-03 20:16 61.28743 -0.32468 35862 ft 409 kts 292°
2026-05-03 20:16 61.31127 -0.43223 35863 ft 409 kts 292°
2026-05-03 20:17 61.33489 -0.53934 35901 ft 409 kts 292°
2026-05-03 20:17 61.35862 -0.64727 35877 ft 409 kts 292°
2026-05-03 20:18 61.38228 -0.75515 35872 ft 409 kts 292°
2026-05-03 20:18 61.40583 -0.86323 35876 ft 409 kts 292°
2026-05-03 20:19 61.42922 -0.97149 35871 ft 409 kts 291°
2026-05-03 20:19 61.45251 -1.08007 35870 ft 409 kts 291°
2026-05-03 20:20 61.47182 -1.17026 35879 ft 409 kts 291°
2026-05-03 20:20 61.49503 -1.27905 35879 ft 409 kts 291°
2026-05-03 20:21 61.51823 -1.38797 35878 ft 409 kts 291°
2026-05-03 20:21 61.54123 -1.49709 35882 ft 409 kts 291°
2026-05-03 20:22 61.56412 -1.60643 35883 ft 409 kts 291°
2026-05-03 20:22 61.58695 -1.71569 35889 ft 409 kts 291°
2026-05-03 20:23 61.60970 -1.82506 35889 ft 408 kts 291°
2026-05-03 20:23 61.63235 -1.93457 35890 ft 408 kts 291°
2026-05-03 20:24 61.65486 -2.04423 35893 ft 408 kts 291°
2026-05-03 20:24 61.67717 -2.15326 35890 ft 408 kts 291°
2026-05-03 20:25 61.69953 -2.26315 35890 ft 408 kts 291°
2026-05-03 20:25 61.72193 -2.37376 35895 ft 408 kts 291°
2026-05-03 20:26 61.74399 -2.48331 35891 ft 408 kts 291°
2026-05-03 20:26 61.76609 -2.59378 35899 ft 408 kts 291°
2026-05-03 20:27 61.78802 -2.70435 35900 ft 408 kts 291°
2026-05-03 20:27 61.80982 -2.81501 35900 ft 408 kts 291°
2026-05-03 20:28 61.83166 -2.92588 35906 ft 408 kts 291°
2026-05-03 20:28 61.85345 -3.03688 35910 ft 408 kts 291°
2026-05-03 20:29 61.87516 -3.14820 35914 ft 408 kts 291°
2026-05-03 20:29 61.89672 -3.25951 35924 ft 408 kts 291°
2026-05-03 20:30 61.91816 -3.37118 35918 ft 408 kts 290°
2026-05-03 20:30 61.93940 -3.48217 35921 ft 409 kts 290°
2026-05-03 20:31 61.96069 -3.59431 35907 ft 409 kts 291°
2026-05-03 20:31 61.98186 -3.70646 35916 ft 408 kts 290°
2026-05-03 20:32 62.00297 -3.81857 35924 ft 408 kts 290°
2026-05-03 20:32 62.02395 -3.93057 35923 ft 407 kts 290°
2026-05-03 20:33 62.04487 -4.04286 35922 ft 407 kts 290°
2026-05-03 20:33 62.06565 -4.15528 35922 ft 407 kts 290°
2026-05-03 20:34 62.08632 -4.26774 35923 ft 407 kts 290°
2026-05-03 20:34 62.10691 -4.38041 35912 ft 407 kts 290°
2026-05-03 20:35 62.12746 -4.49320 35923 ft 407 kts 290°
2026-05-03 20:35 62.14786 -4.60548 35929 ft 407 kts 290°
2026-05-03 20:36 62.16819 -4.71855 35922 ft 406 kts 290°
2026-05-03 20:36 62.18832 -4.83174 35915 ft 407 kts 290°
2026-05-03 20:37 62.20846 -4.94538 35921 ft 408 kts 290°
2026-05-03 20:37 62.22852 -5.05920 35921 ft 408 kts 290°
2026-05-03 20:38 62.24853 -5.17317 35932 ft 408 kts 290°
2026-05-03 20:38 62.26848 -5.28735 35939 ft 408 kts 290°
2026-05-03 20:39 62.28816 -5.40075 35943 ft 408 kts 290°
2026-05-03 20:39 62.30786 -5.51502 35945 ft 408 kts 290°
2026-05-03 20:40 62.32742 -5.62960 35951 ft 408 kts 290°
2026-05-03 20:40 62.34692 -5.74414 35951 ft 408 kts 289°
2026-05-03 20:41 62.36630 -5.85884 35934 ft 407 kts 290°
2026-05-03 20:41 62.38559 -5.97352 35949 ft 407 kts 290°
2026-05-03 20:42 62.40476 -6.08814 35947 ft 405 kts 289°
2026-05-03 20:42 62.42354 -6.20161 35947 ft 404 kts 289°
2026-05-03 20:43 62.44241 -6.31585 35943 ft 405 kts 289°
2026-05-03 20:43 62.46123 -6.43060 35944 ft 405 kts 289°
2026-05-03 20:44 62.47996 -6.54548 35946 ft 405 kts 289°
2026-05-03 20:44 62.49862 -6.66055 35926 ft 405 kts 289°
2026-05-03 20:45 62.51712 -6.77559 35936 ft 405 kts 289°
2026-05-03 20:45 62.53543 -6.89023 35951 ft 405 kts 289°
2026-05-03 20:46 62.55378 -7.00559 35951 ft 405 kts 289°
2026-05-03 20:46 62.57206 -7.12106 35952 ft 405 kts 289°
2026-05-03 20:47 62.59021 -7.23668 35954 ft 405 kts 289°
2026-05-03 20:47 62.60830 -7.35255 35955 ft 405 kts 289°
2026-05-03 20:48 62.62623 -7.46831 35941 ft 404 kts 289°
2026-05-03 20:48 62.64406 -7.58424 35981 ft 404 kts 289°
2026-05-03 20:49 62.66177 -7.70031 35974 ft 404 kts 289°
2026-05-03 20:49 62.67940 -7.81652 35969 ft 404 kts 289°
2026-05-03 20:50 62.69698 -7.93298 35962 ft 404 kts 289°
2026-05-03 20:50 62.71438 -8.04949 35973 ft 404 kts 288°
2026-05-03 20:51 62.73173 -8.16611 35973 ft 404 kts 288°
2026-05-03 20:51 62.74890 -8.28207 35969 ft 404 kts 288°
2026-05-03 20:52 62.76605 -8.39897 35973 ft 404 kts 288°
2026-05-03 20:52 62.78311 -8.51601 35973 ft 404 kts 288°
2026-05-03 20:53 62.80005 -8.63322 35970 ft 404 kts 288°
2026-05-03 20:53 62.81691 -8.75056 35969 ft 404 kts 288°
2026-05-03 20:54 62.83371 -8.86800 35973 ft 404 kts 288°
2026-05-03 20:54 62.85868 -9.04458 35979 ft 404 kts 288°
2026-05-03 20:55 62.87502 -9.16133 35979 ft 403 kts 288°
2026-05-03 20:55 62.88555 -9.23653 35978 ft 403 kts 288°
2026-05-03 20:56 62.90188 -9.35416 35979 ft 403 kts 288°
2026-05-03 20:56 62.91813 -9.47204 35979 ft 403 kts 288°
2026-05-03 20:57 62.93424 -9.58984 35984 ft 403 kts 288°
2026-05-03 20:57 62.95023 -9.70800 35985 ft 403 kts 288°
2026-05-03 20:58 62.96613 -9.82597 35961 ft 403 kts 288°
2026-05-03 20:58 62.98199 -9.94406 35979 ft 402 kts 288°
2026-05-03 20:59 62.99764 -10.06195 35986 ft 401 kts 287°
2026-05-03 20:59 63.01299 -10.17909 35984 ft 401 kts 287°
2026-05-03 21:00 63.02331 -10.25792 35989 ft 401 kts 287°
2026-05-03 21:00 63.04375 -10.41508 35994 ft 400 kts 287°
2026-05-03 21:01 63.05895 -10.53302 35993 ft 399 kts 287°
2026-05-03 21:01 63.07406 -10.65070 35963 ft 399 kts 287°
2026-05-03 21:02 63.08900 -10.76847 35976 ft 398 kts 287°
2026-05-03 21:02 63.10385 -10.88630 35982 ft 398 kts 287°
2026-05-03 21:03 63.11862 -11.00423 35987 ft 398 kts 287°
2026-05-03 21:03 63.13320 -11.12162 35986 ft 398 kts 287°
2026-05-03 21:04 63.14776 -11.23979 35985 ft 398 kts 287°
2026-05-03 21:04 63.16217 -11.35810 35990 ft 398 kts 287°
2026-05-03 21:05 63.17654 -11.47660 35972 ft 398 kts 287°
2026-05-03 21:05 63.19078 -11.59487 35993 ft 397 kts 287°
2026-05-03 21:06 63.20486 -11.71328 35995 ft 397 kts 287°
2026-05-03 21:06 63.21891 -11.83138 35995 ft 396 kts 287°
2026-05-03 21:07 63.23277 -11.94903 36000 ft 396 kts 287°
2026-05-03 21:07 63.24661 -12.06752 36001 ft 395 kts 286°
2026-05-03 21:08 63.26028 -12.18580 35995 ft 396 kts 286°
2026-05-03 21:08 63.27386 -12.30423 35973 ft 395 kts 287°
2026-05-03 21:09 63.28728 -12.42242 35988 ft 394 kts 286°
2026-05-03 21:09 63.30060 -12.54078 36002 ft 394 kts 286°
2026-05-03 21:10 63.31160 -12.63904 36005 ft 394 kts 286°
2026-05-03 21:10 63.32473 -12.75723 36004 ft 393 kts 286°
2026-05-03 21:11 63.33764 -12.87554 36003 ft 393 kts 286°
2026-05-03 21:11 63.35053 -12.99388 36001 ft 393 kts 286°
2026-05-03 21:12 63.36341 -13.11221 35963 ft 392 kts 286°
2026-05-03 21:12 63.37614 -13.23040 35997 ft 391 kts 286°
2026-05-03 21:13 63.38868 -13.34826 36002 ft 390 kts 286°
2026-05-03 21:13 63.40111 -13.46596 36004 ft 389 kts 286°
2026-05-03 21:14 63.41335 -13.58288 36002 ft 390 kts 286°
2026-05-03 21:14 63.42554 -13.70069 35983 ft 389 kts 285°
2026-05-03 21:15 63.43766 -13.81863 35984 ft 390 kts 285°
2026-05-03 21:15 63.44973 -13.93679 35955 ft 389 kts 286°
2026-05-03 21:16 63.46165 -14.05457 35985 ft 388 kts 286°
2026-05-03 21:16 63.47342 -14.17221 35996 ft 387 kts 286°
2026-05-03 21:17 63.48510 -14.28965 36001 ft 387 kts 285°
2026-05-03 21:17 63.49662 -14.40728 35999 ft 387 kts 285°
2026-05-03 21:18 63.50805 -14.52490 35999 ft 387 kts 285°
2026-05-03 21:18 63.51941 -14.64260 35995 ft 386 kts 285°
2026-05-03 21:19 63.53063 -14.76040 35960 ft 386 kts 285°
2026-05-03 21:19 63.54173 -14.87779 36003 ft 384 kts 285°
2026-05-03 21:20 63.55274 -14.99470 36011 ft 382 kts 285°
2026-05-03 21:20 63.56351 -15.11103 36000 ft 381 kts 285°
2026-05-03 21:21 63.57425 -15.22760 35986 ft 381 kts 285°
2026-05-03 21:21 63.58489 -15.34344 35978 ft 382 kts 285°
2026-05-03 21:22 63.59552 -15.46046 35977 ft 383 kts 285°
2026-05-03 21:22 63.60604 -15.57780 35981 ft 383 kts 284°
2026-05-03 21:23 63.61634 -15.69492 35948 ft 380 kts 284°
2026-05-03 21:23 63.62653 -15.81129 35975 ft 379 kts 284°
2026-05-03 21:24 63.63655 -15.92757 35992 ft 379 kts 284°
2026-05-03 21:24 63.64659 -16.04425 36001 ft 379 kts 284°
2026-05-03 21:25 63.65658 -16.16071 35998 ft 379 kts 284°
2026-05-03 21:25 63.66634 -16.27640 35996 ft 379 kts 284°
2026-05-03 21:26 63.67609 -16.39306 36001 ft 379 kts 284°
2026-05-03 21:26 63.68568 -16.50983 35997 ft 379 kts 284°
2026-05-03 21:27 63.69526 -16.62678 35999 ft 379 kts 284°
2026-05-03 21:27 63.70469 -16.74372 35994 ft 379 kts 284°
2026-05-03 21:28 63.71400 -16.86076 35998 ft 379 kts 284°
2026-05-03 21:28 63.72325 -16.97787 35983 ft 379 kts 284°
2026-05-03 21:29 63.73230 -17.09431 35991 ft 379 kts 283°
2026-05-03 21:29 63.74135 -17.21173 35991 ft 379 kts 283°
2026-05-03 21:30 63.75038 -17.32919 35958 ft 379 kts 283°
2026-05-03 21:30 63.75923 -17.44641 35979 ft 378 kts 283°
2026-05-03 21:31 63.76769 -17.56369 35991 ft 377 kts 282°
2026-05-03 21:31 63.77625 -17.68019 35995 ft 375 kts 283°
2026-05-03 21:32 63.78482 -17.79554 35992 ft 373 kts 283°
2026-05-03 21:32 63.79408 -17.91101 35992 ft 374 kts 284°
2026-05-03 21:33 63.80368 -18.02704 35989 ft 375 kts 284°
2026-05-03 21:33 63.81267 -18.14277 35398 ft 373 kts 282°
2026-05-03 21:34 63.81608 -18.20071 34872 ft 369 kts 282°
2026-05-03 21:34 63.81979 -18.25777 34632 ft 364 kts 283°
2026-05-03 21:34 63.82362 -18.31414 34440 ft 361 kts 283°
2026-05-03 21:34 63.82746 -18.37003 34209 ft 358 kts 284°
2026-05-03 21:35 63.83127 -18.42547 33975 ft 355 kts 284°
2026-05-03 21:35 63.83502 -18.48067 33703 ft 353 kts 284°
2026-05-03 21:35 63.83868 -18.53558 33430 ft 352 kts 283°
2026-05-03 21:35 63.84228 -18.59041 33158 ft 352 kts 283°
2026-05-03 21:36 63.84581 -18.64450 32896 ft 351 kts 283°
2026-05-03 21:36 63.84938 -18.69931 32627 ft 351 kts 283°
2026-05-03 21:36 63.85269 -18.75022 32383 ft 350 kts 283°
2026-05-03 21:36 63.85615 -18.80412 32117 ft 340 kts 283°
2026-05-03 21:37 63.85944 -18.85635 31863 ft 329 kts 283°
2026-05-03 21:37 63.86260 -18.90701 31601 ft 320 kts 283°
2026-05-03 21:37 63.86567 -18.95628 31347 ft 312 kts 283°
2026-05-03 21:37 63.86883 -19.00599 31101 ft 327 kts 283°
2026-05-03 21:38 63.87223 -19.05825 30788 ft 341 kts 283°
2026-05-03 21:38 63.87568 -19.11192 30541 ft 345 kts 282°
2026-05-03 21:38 63.87906 -19.16591 30293 ft 345 kts 282°
2026-05-03 21:38 63.88234 -19.21977 30049 ft 344 kts 282°
2026-05-03 21:39 63.88556 -19.27337 29765 ft 342 kts 282°
2026-05-03 21:39 63.88875 -19.32663 29485 ft 341 kts 282°
2026-05-03 21:39 63.89194 -19.37992 29193 ft 339 kts 282°
2026-05-03 21:39 63.89512 -19.43275 28903 ft 338 kts 282°
2026-05-03 21:40 63.89829 -19.48558 28632 ft 336 kts 282°
2026-05-03 21:40 63.90139 -19.53812 28355 ft 335 kts 282°
2026-05-03 21:40 63.90445 -19.59051 28083 ft 334 kts 282°
2026-05-03 21:40 63.90744 -19.64275 27813 ft 333 kts 282°
2026-05-03 21:41 63.91042 -19.69478 27546 ft 332 kts 282°
2026-05-03 21:41 63.91340 -19.74667 27286 ft 331 kts 282°
2026-05-03 21:41 63.91637 -19.79842 27017 ft 330 kts 282°
2026-05-03 21:41 63.91930 -19.84945 26761 ft 329 kts 282°
2026-05-03 21:42 63.92223 -19.90092 26505 ft 328 kts 282°
2026-05-03 21:42 63.92512 -19.95237 26234 ft 329 kts 281°
2026-05-03 21:42 63.92799 -20.00387 25983 ft 328 kts 281°
2026-05-03 21:42 63.93084 -20.05516 25735 ft 326 kts 281°
2026-05-03 21:43 63.93366 -20.10629 25483 ft 325 kts 281°
2026-05-03 21:43 63.93644 -20.15728 25237 ft 324 kts 281°
2026-05-03 21:43 63.93917 -20.20814 24810 ft 323 kts 281°
2026-05-03 21:43 63.94186 -20.25864 24252 ft 320 kts 281°
2026-05-03 21:44 63.94451 -20.30879 23675 ft 319 kts 281°
2026-05-03 21:44 63.94533 -20.35956 22911 ft 325 kts 272°
2026-05-03 21:44 63.94216 -20.41071 22238 ft 327 kts 268°
2026-05-03 21:44 63.93846 -20.46165 21560 ft 326 kts 268°
2026-05-03 21:45 63.93477 -20.51241 20971 ft 323 kts 268°
2026-05-03 21:45 63.93113 -20.56184 20828 ft 310 kts 268°
2026-05-03 21:45 63.92761 -20.60894 20690 ft 290 kts 268°
2026-05-03 21:45 63.92433 -20.65210 20336 ft 273 kts 268°
2026-05-03 21:46 63.92121 -20.69403 19699 ft 266 kts 268°
2026-05-03 21:46 63.91819 -20.73527 18996 ft 263 kts 268°
2026-05-03 21:46 63.91518 -20.77658 18337 ft 267 kts 268°
2026-05-03 21:46 63.91213 -20.81807 17884 ft 266 kts 268°
2026-05-03 21:47 63.90907 -20.85944 17449 ft 265 kts 267°
2026-05-03 21:47 63.90597 -20.90076 17012 ft 264 kts 267°
2026-05-03 21:47 63.90289 -20.94182 16587 ft 264 kts 267°
2026-05-03 21:47 63.89977 -20.98288 16173 ft 263 kts 266°
2026-05-03 21:48 63.89661 -21.02381 15769 ft 262 kts 266°
2026-05-03 21:48 63.89345 -21.06461 15371 ft 262 kts 266°
2026-05-03 21:48 63.89033 -21.10512 14982 ft 261 kts 266°
2026-05-03 21:48 63.88720 -21.14574 14598 ft 261 kts 266°
2026-05-03 21:49 63.88407 -21.18624 14229 ft 260 kts 266°
2026-05-03 21:49 63.88092 -21.22671 13865 ft 260 kts 266°
2026-05-03 21:49 63.87778 -21.26702 13458 ft 259 kts 265°
2026-05-03 21:49 63.87466 -21.30684 13033 ft 259 kts 265°
2026-05-03 21:50 63.87152 -21.34710 12621 ft 259 kts 265°
2026-05-03 21:50 63.86835 -21.38738 12207 ft 260 kts 265°
2026-05-03 21:50 63.86513 -21.42769 11806 ft 260 kts 265°
2026-05-03 21:50 63.86189 -21.46800 11406 ft 260 kts 265°
2026-05-03 21:51 63.85865 -21.50832 11088 ft 258 kts 265°
2026-05-03 21:51 63.85545 -21.54809 10810 ft 255 kts 265°
2026-05-03 21:51 63.85226 -21.58754 10544 ft 255 kts 265°
2026-05-03 21:51 63.84908 -21.62693 10272 ft 254 kts 265°
2026-05-03 21:52 63.84590 -21.66643 9999 ft 254 kts 265°
2026-05-03 21:52 63.84271 -21.70590 9713 ft 254 kts 264°
2026-05-03 21:52 63.83951 -21.74533 9432 ft 254 kts 264°
2026-05-03 21:52 63.83631 -21.78477 9162 ft 254 kts 264°
2026-05-03 21:53 63.83308 -21.82423 8888 ft 255 kts 264°
2026-05-03 21:53 63.82983 -21.86363 8609 ft 254 kts 264°
2026-05-03 21:53 63.82656 -21.90298 8347 ft 254 kts 263°
2026-05-03 21:53 63.82326 -21.94232 8090 ft 254 kts 263°
2026-05-03 21:54 63.81994 -21.98165 7963 ft 255 kts 263°
2026-05-03 21:54 63.81662 -22.02115 7693 ft 255 kts 263°
2026-05-03 21:54 63.81330 -22.06058 7341 ft 255 kts 263°
2026-05-03 21:54 63.80980 -22.09985 6977 ft 256 kts 258°
2026-05-03 21:55 63.80417 -22.13850 6550 ft 260 kts 254°
2026-05-03 21:55 63.79838 -22.17692 6132 ft 262 kts 255°
2026-05-03 21:55 63.79248 -22.21578 5729 ft 262 kts 255°
2026-05-03 21:55 63.78659 -22.25463 5448 ft 259 kts 255°
2026-05-03 21:56 63.78078 -22.29281 5245 ft 252 kts 255°
2026-05-03 21:56 63.77515 -22.32966 5112 ft 244 kts 255°
2026-05-03 21:56 63.77094 -22.36589 4935 ft 234 kts 268°
2026-05-03 21:56 63.77089 -22.38994 4807 ft 229 kts 278°
2026-05-03 21:57 63.77668 -22.43612 4325 ft 228 kts 293°
2026-05-03 21:57 63.78218 -22.46948 3991 ft 228 kts 292°
2026-05-03 21:57 63.78765 -22.50336 3587 ft 231 kts 292°
2026-05-03 21:57 63.79304 -22.53685 3502 ft 221 kts 292°
2026-05-03 21:58 63.79979 -22.56677 3393 ft 208 kts 309°
2026-05-03 21:58 63.80623 -22.58238 3305 ft 202 kts 321°
2026-05-03 21:58 63.81799 -22.59859 3118 ft 196 kts 338°
2026-05-03 21:58 63.83117 -22.60539 2887 ft 195 kts 354°
2026-05-03 21:59 63.84466 -22.60555 2630 ft 193 kts 358°
2026-05-03 21:59 63.85777 -22.60551 2362 ft 184 kts 358°
2026-05-03 21:59 63.87005 -22.60548 2125 ft 168 kts 358°
2026-05-03 21:59 63.88126 -22.60547 1885 ft 155 kts 357°
2026-05-03 22:00 63.89161 -22.60546 1663 ft 144 kts 358°
2026-05-03 22:00 63.90128 -22.60546 1463 ft 135 kts 357°
2026-05-03 22:00 63.91046 -22.60546 1301 ft 131 kts 356°
2026-05-03 22:00 63.91943 -22.60547 1099 ft 129 kts 357°
2026-05-03 22:01 63.92817 -22.60546 936 ft 126 kts 356°
2026-05-03 22:01 63.93689 -22.60546 745 ft 125 kts 357°
2026-05-03 22:01 63.94554 -22.60546 567 ft 126 kts 358°
2026-05-03 22:01 63.95430 -22.60546 392 ft 124 kts 359°
2026-05-03 22:02 63.96317 -22.60551 225 ft 126 kts 358°
2026-05-03 22:02 63.97162 -22.60547 154 ft 115 kts 358°
2026-05-03 22:02 63.97775 -22.60555 148 ft 48 kts
2026-05-03 22:02 63.97917 -22.60548 147 ft 16 kts
2026-05-03 22:03 63.98044 -22.60539 149 ft 20 kts 357°
2026-05-03 22:03 63.98181 -22.60696 150 ft 24 kts 331°
2026-05-03 22:03 63.98257 -22.60790 150 ft 2 kts 330°
2026-05-03 22:03 63.98288 -22.60830 151 ft 8 kts 330°
2026-05-03 22:04 63.98352 -22.60913 151 ft 13 kts 330°
2026-05-03 22:04 63.98446 -22.60958 144 ft 10 kts 360°
2026-05-03 22:04 63.98533 -22.60948 153 ft 16 kts
2026-05-03 22:04 63.98649 -22.60945 156 ft 19 kts 359°
2026-05-03 22:05 63.98794 -22.60948 159 ft 21 kts
2026-05-03 22:05 63.98942 -22.60945 163 ft 21 kts
2026-05-03 22:05 63.99090 -22.60937 166 ft 21 kts
2026-05-03 22:05 63.99171 -22.61045 167 ft 17 kts 280°
2026-05-03 22:06 63.99171 -22.61351 166 ft 21 kts 271°
2026-05-03 22:06 63.99174 -22.61713 165 ft 24 kts 271°
2026-05-03 22:06 63.99172 -22.62090 164 ft 21 kts 268°
2026-05-03 22:06 63.99205 -22.62304 164 ft 15 kts 336°
2026-05-03 22:07 63.99288 -22.62314 164 ft 6 kts
2026-05-03 22:07 63.99293 -22.62314 164 ft 0 kts
2026-05-03 22:08 63.99289 -22.62308 164 ft 0 kts 359°